Time,TemperatureF,DewpointF,PressureIn,WindDirection,WindDirectionDegrees,WindSpeedMPH,WindSpeedGustMPH,Humidity,HourlyPrecipIn,Conditions,Clouds,dailyrainin,SoftwareType,DateUTC
2013-08-19 00:01:00,56.1,55.3,30.16,NW,325,0.0,0.0,97,0.00,,,0.00,Wunderground v.1.15,2013-08-19 04:01:00,
2013-08-19 00:02:00,56.1,55.3,30.16,NW,324,0.0,0.0,97,0.00,,,0.00,Wunderground v.1.15,2013-08-19 04:02:00,
2013-08-19 00:03:00,56.1,55.3,30.16,NW,325,0.0,0.0,97,0.00,,,0.00,Wunderground v.1.15,2013-08-19 04:03:00,
2013-08-19 00:04:00,56.1,55.3,30.16,NW,325,0.0,0.0,97,0.00,,,0.00,Wunderground v.1.15,2013-08-19 04:04:00,
2013-08-19 00:09:00,56.0,55.2,30.16,NW,325,0.0,0.0,97,0.00,,,0.00,Wunderground v.1.15,2013-08-19 04:09:00,
2013-08-19 00:15:00,55.9,55.1,30.16,NW,324,0.0,0.0,97,0.00,,,0.00,Wunderground v.1.15,2013-08-19 04:15:00,
2013-08-19 00:21:00,55.9,55.1,30.16,NW,324,0.0,0.0,97,0.00,,,0.00,Wunderground v.1.15,2013-08-19 04:21:00,
2013-08-19 00:23:00,55.9,55.1,30.16,NW,324,0.0,0.0,97,0.00,,,0.00,Wunderground v.1.15,2013-08-19 04:23:00,
2013-08-19 00:29:00,55.6,54.5,30.16,NW,325,0.0,0.0,96,0.00,,,0.00,Wunderground v.1.15,2013-08-19 04:29:00,
2013-08-19 00:35:00,55.5,54.7,30.16,NW,325,0.0,1.0,97,0.00,,,0.00,Wunderground v.1.15,2013-08-19 04:35:00,
2013-08-19 00:41:00,55.3,54.5,30.16,NW,324,0.0,1.0,97,0.00,,,0.00,Wunderground v.1.15,2013-08-19 04:41:00,
2013-08-19 00:46:00,55.2,54.4,30.16,NW,325,0.0,1.0,97,0.00,,,0.00,Wunderground v.1.15,2013-08-19 04:46:00,
2013-08-19 00:52:00,55.1,54.3,30.16,NW,325,0.0,1.0,97,0.00,,,0.00,Wunderground v.1.15,2013-08-19 04:52:00,
2013-08-19 00:58:00,55.0,54.2,30.16,NW,324,0.0,1.0,97,0.00,,,0.00,Wunderground v.1.15,2013-08-19 04:58:00,
2013-08-19 01:04:00,54.9,54.1,30.15,NW,325,0.0,0.0,97,0.00,,,0.00,Wunderground v.1.15,2013-08-19 05:04:00,
2013-08-19 01:09:00,55.0,54.4,30.15,NW,325,0.0,0.0,98,0.00,,,0.00,Wunderground v.1.15,2013-08-19 05:09:00,
2013-08-19 01:15:00,55.2,54.6,30.15,NW,325,0.0,0.0,98,0.00,,,0.00,Wunderground v.1.15,2013-08-19 05:15:00,
2013-08-19 01:21:00,55.4,54.8,30.15,NW,323,0.0,0.0,98,0.00,,,0.00,Wunderground v.1.15,2013-08-19 05:21:00,
2013-08-19 01:26:00,55.5,54.7,30.15,NW,324,0.0,0.0,97,0.00,,,0.00,Wunderground v.1.15,2013-08-19 05:26:00,
2013-08-19 01:32:00,55.6,54.8,30.15,NW,324,0.0,0.0,97,0.00,,,0.00,Wunderground v.1.15,2013-08-19 05:32:00,
2013-08-19 01:38:00,55.8,55.0,30.16,NW,322,0.0,0.0,97,0.00,,,0.00,Wunderground v.1.15,2013-08-19 05:38:00,
2013-08-19 01:43:00,55.8,55.0,30.15,NW,323,0.0,0.0,97,0.00,,,0.00,Wunderground v.1.15,2013-08-19 05:43:00,
2013-08-19 01:49:00,55.6,54.8,30.15,NW,319,0.0,1.0,97,0.00,,,0.00,Wunderground v.1.15,2013-08-19 05:49:00,
2013-08-19 01:55:00,55.5,54.7,30.15,NW,321,0.0,1.0,97,0.00,,,0.00,Wunderground v.1.15,2013-08-19 05:55:00,
2013-08-19 02:00:00,55.3,54.5,30.15,WSW,252,0.0,0.0,97,0.00,,,0.00,Wunderground v.1.15,2013-08-19 06:00:00,
2013-08-19 02:06:00,55.1,54.3,30.15,NW,318,0.0,0.0,97,0.00,,,0.00,Wunderground v.1.15,2013-08-19 06:06:00,
2013-08-19 02:12:00,55.1,54.3,30.15,WNW,288,0.0,0.0,97,0.00,,,0.00,Wunderground v.1.15,2013-08-19 06:12:00,
2013-08-19 02:18:00,55.0,54.2,30.14,NW,309,0.0,0.0,97,0.00,,,0.00,Wunderground v.1.15,2013-08-19 06:18:00,
2013-08-19 02:23:00,54.9,54.1,30.15,NW,309,0.0,0.0,97,0.00,,,0.00,Wunderground v.1.15,2013-08-19 06:23:00,
2013-08-19 02:29:00,54.6,53.8,30.15,West,281,0.0,0.0,97,0.00,,,0.00,Wunderground v.1.15,2013-08-19 06:29:00,
2013-08-19 02:35:00,54.5,53.7,30.15,NNW,344,0.0,1.0,97,0.00,,,0.00,Wunderground v.1.15,2013-08-19 06:35:00,
2013-08-19 02:40:00,54.4,53.6,30.15,NNW,337,0.0,1.0,97,0.00,,,0.00,Wunderground v.1.15,2013-08-19 06:40:00,
2013-08-19 02:46:00,54.3,53.5,30.15,WSW,239,0.0,1.0,97,0.00,,,0.00,Wunderground v.1.15,2013-08-19 06:46:00,
2013-08-19 02:52:00,54.3,53.5,30.14,WSW,246,0.0,1.0,97,0.00,,,0.00,Wunderground v.1.15,2013-08-19 06:52:00,
2013-08-19 02:58:00,54.2,53.6,30.14,WSW,246,0.0,1.0,98,0.00,,,0.00,Wunderground v.1.15,2013-08-19 06:58:00,
2013-08-19 03:03:00,54.2,53.6,30.15,WSW,246,0.0,1.0,98,0.00,,,0.00,Wunderground v.1.15,2013-08-19 07:03:00,
2013-08-19 03:09:00,54.5,53.9,30.14,West,276,0.0,1.0,98,0.00,,,0.00,Wunderground v.1.15,2013-08-19 07:09:00,
2013-08-19 03:15:00,54.5,53.9,30.14,West,276,0.0,0.0,98,0.00,,,0.00,Wunderground v.1.15,2013-08-19 07:15:00,
2013-08-19 03:21:00,54.5,53.9,30.14,West,276,0.0,0.0,98,0.00,,,0.00,Wunderground v.1.15,2013-08-19 07:21:00,
2013-08-19 03:26:00,54.7,54.1,30.14,West,276,0.0,0.0,98,0.00,,,0.00,Wunderground v.1.15,2013-08-19 07:26:00,
2013-08-19 03:31:00,54.7,54.1,30.14,West,276,0.0,1.0,98,0.00,,,0.00,Wunderground v.1.15,2013-08-19 07:31:00,
2013-08-19 03:37:00,54.7,54.1,30.13,West,276,0.0,1.0,98,0.00,,,0.00,Wunderground v.1.15,2013-08-19 07:37:00,
2013-08-19 03:43:00,54.6,54.0,30.13,West,276,0.0,1.0,98,0.00,,,0.00,Wunderground v.1.15,2013-08-19 07:43:00,
2013-08-19 03:48:00,54.7,54.1,30.13,West,276,0.0,1.0,98,0.00,,,0.00,Wunderground v.1.15,2013-08-19 07:48:00,
2013-08-19 03:54:00,54.8,54.2,30.13,West,276,0.0,1.0,98,0.00,,,0.00,Wunderground v.1.15,2013-08-19 07:54:00,
2013-08-19 04:00:00,54.8,54.2,30.13,West,276,0.0,0.0,98,0.00,,,0.00,Wunderground v.1.15,2013-08-19 08:00:00,
2013-08-19 04:05:00,54.7,54.1,30.12,West,278,0.0,0.0,98,0.00,,,0.00,Wunderground v.1.15,2013-08-19 08:05:00,
2013-08-19 04:11:00,54.6,54.0,30.12,West,278,0.0,0.0,98,0.00,,,0.00,Wunderground v.1.15,2013-08-19 08:11:00,
2013-08-19 04:17:00,54.5,53.9,30.13,West,269,0.0,0.0,98,0.00,,,0.00,Wunderground v.1.15,2013-08-19 08:17:00,
2013-08-19 04:23:00,54.6,54.0,30.13,West,270,0.0,0.0,98,0.00,,,0.00,Wunderground v.1.15,2013-08-19 08:23:00,
2013-08-19 04:28:00,54.7,54.1,30.13,West,271,0.0,0.0,98,0.00,,,0.00,Wunderground v.1.15,2013-08-19 08:28:00,
2013-08-19 04:34:00,54.6,54.0,30.13,NNE,18,0.0,1.0,98,0.00,,,0.00,Wunderground v.1.15,2013-08-19 08:34:00,
2013-08-19 04:40:00,54.6,54.0,30.13,NW,315,0.0,1.0,98,0.00,,,0.00,Wunderground v.1.15,2013-08-19 08:40:00,
2013-08-19 04:46:00,54.6,54.0,30.12,NW,314,0.0,1.0,98,0.00,,,0.00,Wunderground v.1.15,2013-08-19 08:46:00,
2013-08-19 04:51:00,54.6,54.0,30.13,NW,315,0.0,1.0,98,0.00,,,0.00,Wunderground v.1.15,2013-08-19 08:51:00,
2013-08-19 04:57:00,54.6,54.0,30.12,NW,315,0.0,1.0,98,0.00,,,0.00,Wunderground v.1.15,2013-08-19 08:57:00,
2013-08-19 05:03:00,54.6,54.0,30.12,NW,315,0.0,0.0,98,0.00,,,0.00,Wunderground v.1.15,2013-08-19 09:03:00,
2013-08-19 05:09:00,54.6,54.0,30.12,NW,314,0.0,0.0,98,0.00,,,0.00,Wunderground v.1.15,2013-08-19 09:09:00,
2013-08-19 05:14:00,54.7,54.1,30.12,NW,315,0.0,0.0,98,0.00,,,0.00,Wunderground v.1.15,2013-08-19 09:14:00,
2013-08-19 05:20:00,54.7,54.1,30.12,West,281,0.0,0.0,98,0.00,,,0.00,Wunderground v.1.15,2013-08-19 09:20:00,
2013-08-19 05:26:00,54.8,54.2,30.12,SE,129,0.0,0.0,98,0.00,,,0.00,Wunderground v.1.15,2013-08-19 09:26:00,
2013-08-19 05:31:00,54.6,54.0,30.12,SSE,150,0.0,1.0,98,0.00,,,0.00,Wunderground v.1.15,2013-08-19 09:31:00,
2013-08-19 05:37:00,54.4,53.8,30.12,SSE,153,0.0,1.0,98,0.00,,,0.00,Wunderground v.1.15,2013-08-19 09:37:00,
2013-08-19 05:42:00,54.3,53.7,30.12,SSE,153,0.0,1.0,98,0.00,,,0.00,Wunderground v.1.15,2013-08-19 09:42:00,
2013-08-19 05:48:00,54.3,53.7,30.12,SSE,160,0.0,1.0,98,0.00,,,0.00,Wunderground v.1.15,2013-08-19 09:48:00,
2013-08-19 05:54:00,54.0,53.4,30.12,SE,136,0.0,1.0,98,0.00,,,0.00,Wunderground v.1.15,2013-08-19 09:54:00,
2013-08-19 06:00:00,53.9,53.3,30.12,SSE,163,0.0,0.0,98,0.00,,,0.00,Wunderground v.1.15,2013-08-19 10:00:00,
2013-08-19 06:06:00,53.8,53.2,30.12,SSE,164,0.0,0.0,98,0.00,,,0.00,Wunderground v.1.15,2013-08-19 10:06:00,
2013-08-19 06:12:00,53.9,53.3,30.12,SE,136,0.0,1.0,98,0.00,,,0.00,Wunderground v.1.15,2013-08-19 10:12:00,
2013-08-19 06:18:00,53.8,53.2,30.12,SSE,157,0.0,1.0,98,0.00,,,0.00,Wunderground v.1.15,2013-08-19 10:18:00,
2013-08-19 06:24:00,53.8,53.2,30.12,SSE,156,0.0,0.0,98,0.00,,,0.00,Wunderground v.1.15,2013-08-19 10:24:00,
2013-08-19 06:29:00,53.7,53.1,30.12,SSE,156,0.0,0.0,98,0.00,,,0.00,Wunderground v.1.15,2013-08-19 10:29:00,
2013-08-19 06:35:00,53.8,53.2,30.12,SSE,157,0.0,1.0,98,0.00,,,0.00,Wunderground v.1.15,2013-08-19 10:35:00,
2013-08-19 06:41:00,53.9,53.3,30.12,SSE,156,0.0,1.0,98,0.00,,,0.00,Wunderground v.1.15,2013-08-19 10:41:00,
2013-08-19 06:47:00,53.9,53.3,30.12,SSE,156,0.0,1.0,98,0.00,,,0.00,Wunderground v.1.15,2013-08-19 10:47:00,
2013-08-19 06:53:00,53.8,53.2,30.12,SE,134,0.0,1.0,98,0.00,,,0.00,Wunderground v.1.15,2013-08-19 10:53:00,
2013-08-19 06:58:00,54.1,53.5,30.12,SE,134,0.0,1.0,98,0.00,,,0.00,Wunderground v.1.15,2013-08-19 10:58:00,
2013-08-19 07:04:00,54.1,53.5,30.12,SE,143,0.0,0.0,98,0.00,,,0.00,Wunderground v.1.15,2013-08-19 11:04:00,
2013-08-19 07:10:00,54.0,53.4,30.12,SE,143,0.0,0.0,98,0.00,,,0.00,Wunderground v.1.15,2013-08-19 11:10:00,
2013-08-19 07:15:00,54.1,53.5,30.12,SSW,195,0.0,0.0,98,0.00,,,0.00,Wunderground v.1.15,2013-08-19 11:15:00,
2013-08-19 07:21:00,54.0,53.4,30.11,SSW,192,0.0,0.0,98,0.00,,,0.00,Wunderground v.1.15,2013-08-19 11:21:00,
2013-08-19 07:27:00,54.3,53.7,30.11,SSW,192,0.0,0.0,98,0.00,,,0.00,Wunderground v.1.15,2013-08-19 11:27:00,
2013-08-19 07:32:00,54.3,53.7,30.11,SSW,192,0.0,1.0,98,0.00,,,0.00,Wunderground v.1.15,2013-08-19 11:32:00,
2013-08-19 07:38:00,54.6,54.0,30.11,SSW,193,0.0,1.0,98,0.00,,,0.00,Wunderground v.1.15,2013-08-19 11:38:00,
2013-08-19 07:44:00,54.6,54.0,30.12,SSW,205,0.0,1.0,98,0.00,,,0.00,Wunderground v.1.15,2013-08-19 11:44:00,
2013-08-19 07:50:00,54.5,53.9,30.12,SW,221,0.0,1.0,98,0.00,,,0.00,Wunderground v.1.15,2013-08-19 11:50:00,
2013-08-19 07:55:00,54.4,53.8,30.12,SSE,158,0.0,1.0,98,0.00,,,0.00,Wunderground v.1.15,2013-08-19 11:55:00,
2013-08-19 08:01:00,54.4,53.8,30.12,SSE,150,0.0,0.0,98,0.00,,,0.00,Wunderground v.1.15,2013-08-19 12:01:00,
2013-08-19 08:06:00,54.7,54.1,30.12,South,174,0.0,1.0,98,0.00,,,0.00,Wunderground v.1.15,2013-08-19 12:06:00,
2013-08-19 08:12:00,55.0,54.4,30.12,ESE,103,0.0,0.0,98,0.00,,,0.00,Wunderground v.1.15,2013-08-19 12:12:00,
2013-08-19 08:18:00,55.4,54.8,30.11,South,180,0.0,0.0,98,0.00,,,0.00,Wunderground v.1.15,2013-08-19 12:18:00,
2013-08-19 08:24:00,55.7,54.9,30.11,South,180,0.0,0.0,97,0.00,,,0.00,Wunderground v.1.15,2013-08-19 12:24:00,
2013-08-19 08:29:00,55.9,55.1,30.11,South,180,0.0,0.0,97,0.00,,,0.00,Wunderground v.1.15,2013-08-19 12:29:00,
2013-08-19 08:35:00,55.8,54.7,30.11,SSW,202,0.0,1.0,96,0.00,,,0.00,Wunderground v.1.15,2013-08-19 12:35:00,
2013-08-19 08:41:00,56.2,55.1,30.11,SSW,203,0.0,1.0,96,0.00,,,0.00,Wunderground v.1.15,2013-08-19 12:41:00,
2013-08-19 08:47:00,56.2,54.8,30.11,SSW,197,0.0,1.0,95,0.00,,,0.00,Wunderground v.1.15,2013-08-19 12:47:00,
2013-08-19 08:52:00,56.2,54.8,30.11,SSW,195,0.0,1.0,95,0.00,,,0.00,Wunderground v.1.15,2013-08-19 12:52:00,
2013-08-19 08:58:00,56.6,55.5,30.11,SSW,195,0.0,1.0,96,0.00,,,0.00,Wunderground v.1.15,2013-08-19 12:58:00,
2013-08-19 09:04:00,57.3,55.9,30.10,SE,143,0.0,1.0,95,0.00,,,0.00,Wunderground v.1.15,2013-08-19 13:04:00,
2013-08-19 09:09:00,58.0,56.3,30.10,SSE,150,0.0,1.0,94,0.00,,,0.00,Wunderground v.1.15,2013-08-19 13:09:00,
2013-08-19 09:15:00,58.8,56.5,30.10,SSW,213,0.0,1.0,92,0.00,,,0.00,Wunderground v.1.15,2013-08-19 13:15:00,
2013-08-19 09:21:00,60.0,57.7,30.10,SSW,201,0.0,1.0,92,0.00,,,0.00,Wunderground v.1.15,2013-08-19 13:21:00,
2013-08-19 09:27:00,60.7,57.4,30.10,West,262,1.0,1.0,89,0.00,,,0.00,Wunderground v.1.15,2013-08-19 13:27:00,
2013-08-19 09:33:00,61.7,57.8,30.10,SSE,150,1.0,2.0,87,0.00,,,0.00,Wunderground v.1.15,2013-08-19 13:33:00,
2013-08-19 09:38:00,63.0,58.4,30.10,South,184,1.0,2.0,85,0.00,,,0.00,Wunderground v.1.15,2013-08-19 13:38:00,
2013-08-19 09:44:00,64.5,59.6,30.10,West,277,0.0,1.0,84,0.00,,,0.00,Wunderground v.1.15,2013-08-19 13:44:00,
2013-08-19 09:50:00,65.9,59.6,30.10,SSE,163,0.0,2.0,80,0.00,,,0.00,Wunderground v.1.15,2013-08-19 13:50:00,
2013-08-19 09:56:00,66.9,59.8,30.10,West,259,0.0,2.0,78,0.00,,,0.00,Wunderground v.1.15,2013-08-19 13:56:00,
2013-08-19 10:02:00,68.4,59.8,30.10,SW,214,0.0,1.0,74,0.00,,,0.00,Wunderground v.1.15,2013-08-19 14:02:00,
2013-08-19 10:08:00,69.8,60.4,30.09,SSE,148,0.0,1.0,72,0.00,,,0.00,Wunderground v.1.15,2013-08-19 14:08:00,
2013-08-19 10:14:00,71.0,59.5,30.09,SE,132,0.0,1.0,67,0.00,,,0.00,Wunderground v.1.15,2013-08-19 14:14:00,
2013-08-19 10:20:00,72.3,59.9,30.09,South,184,0.0,0.0,65,0.00,,,0.00,Wunderground v.1.15,2013-08-19 14:20:00,
2013-08-19 10:25:00,73.0,60.1,30.09,SSW,194,0.0,1.0,64,0.00,,,0.00,Wunderground v.1.15,2013-08-19 14:25:00,
2013-08-19 10:31:00,74.1,60.7,30.09,West,259,1.0,2.0,63,0.00,,,0.00,Wunderground v.1.15,2013-08-19 14:31:00,
2013-08-19 10:37:00,74.4,59.6,30.08,WSW,253,1.0,2.0,60,0.00,,,0.00,Wunderground v.1.15,2013-08-19 14:37:00,
2013-08-19 10:43:00,75.2,58.4,30.08,SSE,153,0.0,2.0,56,0.00,,,0.00,Wunderground v.1.15,2013-08-19 14:43:00,
2013-08-19 10:49:00,75.5,58.2,30.07,East,94,0.0,2.0,55,0.00,,,0.00,Wunderground v.1.15,2013-08-19 14:49:00,
2013-08-19 10:54:00,76.1,59.8,30.07,ENE,71,1.0,2.0,57,0.00,,,0.00,Wunderground v.1.15,2013-08-19 14:54:00,
2013-08-19 11:00:00,76.2,58.9,30.07,WSW,248,1.0,1.0,55,0.00,,,0.00,Wunderground v.1.15,2013-08-19 15:00:00,
2013-08-19 11:06:00,76.8,59.4,30.07,SSW,203,1.0,5.0,55,0.00,,,0.00,Wunderground v.1.15,2013-08-19 15:06:00,
2013-08-19 11:12:00,77.4,59.5,30.07,SSW,212,1.0,3.0,54,0.00,,,0.00,Wunderground v.1.15,2013-08-19 15:12:00,
2013-08-19 11:17:00,77.7,58.7,30.07,WSW,243,1.0,3.0,52,0.00,,,0.00,Wunderground v.1.15,2013-08-19 15:17:00,
2013-08-19 11:23:00,77.8,58.8,30.07,West,277,1.0,3.0,52,0.00,,,0.00,Wunderground v.1.15,2013-08-19 15:23:00,
2013-08-19 11:29:00,78.3,59.8,30.07,NNW,347,1.0,3.0,53,0.00,,,0.00,Wunderground v.1.15,2013-08-19 15:29:00,
2013-08-19 11:35:00,79.0,58.8,30.07,SW,226,1.0,4.0,50,0.00,,,0.00,Wunderground v.1.15,2013-08-19 15:35:00,
2013-08-19 11:41:00,78.8,59.7,30.07,West,272,2.0,4.0,52,0.00,,,0.00,Wunderground v.1.15,2013-08-19 15:41:00,
2013-08-19 11:46:00,79.0,58.2,30.06,WSW,257,2.0,4.0,49,0.00,,,0.00,Wunderground v.1.15,2013-08-19 15:46:00,
2013-08-19 11:52:00,79.4,58.6,30.07,WNW,297,2.0,3.0,49,0.00,,,0.00,Wunderground v.1.15,2013-08-19 15:52:00,
2013-08-19 11:58:00,79.7,57.7,30.06,SW,222,2.0,3.0,47,0.00,,,0.00,Wunderground v.1.15,2013-08-19 15:58:00,
2013-08-19 12:04:00,79.8,57.8,30.06,West,278,2.0,5.0,47,0.00,,,0.00,Wunderground v.1.15,2013-08-19 16:04:00,
2013-08-19 12:09:00,79.6,57.6,30.06,NNW,330,3.0,5.0,47,0.00,,,0.00,Wunderground v.1.15,2013-08-19 16:09:00,
2013-08-19 12:15:00,80.0,58.0,30.06,North,351,2.0,7.0,47,0.00,,,0.00,Wunderground v.1.15,2013-08-19 16:15:00,
2013-08-19 12:21:00,79.8,57.8,30.06,WSW,252,3.0,3.0,47,0.00,,,0.00,Wunderground v.1.15,2013-08-19 16:21:00,
2013-08-19 12:27:00,80.0,57.4,30.06,West,265,2.0,5.0,46,0.00,,,0.00,Wunderground v.1.15,2013-08-19 16:27:00,
2013-08-19 12:33:00,79.6,57.6,30.05,WNW,285,4.0,8.0,47,0.00,,,0.00,Wunderground v.1.15,2013-08-19 16:33:00,
2013-08-19 12:39:00,79.3,57.9,30.05,WNW,288,6.0,11.0,48,0.00,,,0.00,Wunderground v.1.15,2013-08-19 16:39:00,
2013-08-19 12:44:00,79.4,58.6,30.05,WNW,300,4.0,5.0,49,0.00,,,0.00,Wunderground v.1.15,2013-08-19 16:44:00,
2013-08-19 12:50:00,79.2,58.4,30.05,WSW,239,4.0,5.0,49,0.00,,,0.00,Wunderground v.1.15,2013-08-19 16:50:00,
2013-08-19 12:55:00,79.4,58.6,30.05,SW,228,4.0,8.0,49,0.00,,,0.00,Wunderground v.1.15,2013-08-19 16:55:00,
2013-08-19 13:00:00,79.7,58.8,30.05,West,267,4.0,5.0,49,0.00,,,0.00,Wunderground v.1.15,2013-08-19 17:00:00,
2013-08-19 13:06:00,79.7,58.8,30.05,WNW,290,3.0,7.0,49,0.00,,,0.00,Wunderground v.1.15,2013-08-19 17:06:00,
2013-08-19 13:11:00,80.3,58.8,30.05,NW,326,3.0,4.0,48,0.00,,,0.00,Wunderground v.1.15,2013-08-19 17:11:00,
2013-08-19 13:17:00,79.8,58.9,30.05,NNW,342,3.0,9.0,49,0.00,,,0.00,Wunderground v.1.15,2013-08-19 17:17:00,
2013-08-19 13:22:00,79.9,59.0,30.05,SSE,157,4.0,7.0,49,0.00,,,0.00,Wunderground v.1.15,2013-08-19 17:22:00,
2013-08-19 13:28:00,79.4,58.6,30.05,WNW,284,4.0,10.0,49,0.00,,,0.00,Wunderground v.1.15,2013-08-19 17:28:00,
2013-08-19 13:34:00,79.8,58.9,30.05,NNW,338,4.0,14.0,49,0.00,,,0.00,Wunderground v.1.15,2013-08-19 17:34:00,
2013-08-19 13:39:00,79.7,58.8,30.05,West,278,3.0,14.0,49,0.00,,,0.00,Wunderground v.1.15,2013-08-19 17:39:00,
2013-08-19 13:45:00,80.4,59.5,30.04,WSW,240,3.0,14.0,49,0.00,,,0.00,Wunderground v.1.15,2013-08-19 17:45:00,
2013-08-19 13:51:00,80.9,59.9,30.04,NE,50,2.0,14.0,49,0.00,,,0.00,Wunderground v.1.15,2013-08-19 17:51:00,
2013-08-19 13:57:00,81.2,59.1,30.04,ENE,64,3.0,14.0,47,0.00,,,0.00,Wunderground v.1.15,2013-08-19 17:57:00,
2013-08-19 14:03:00,81.6,60.0,30.03,ENE,61,2.0,5.0,48,0.00,,,0.00,Wunderground v.1.15,2013-08-19 18:03:00,
2013-08-19 14:09:00,81.0,59.5,30.03,West,269,3.0,11.0,48,0.00,,,0.00,Wunderground v.1.15,2013-08-19 18:09:00,
2013-08-19 14:14:00,81.2,60.2,30.03,NNW,340,3.0,8.0,49,0.00,,,0.00,Wunderground v.1.15,2013-08-19 18:14:00,
2013-08-19 14:20:00,81.9,59.7,30.03,NW,318,2.0,2.0,47,0.00,,,0.00,Wunderground v.1.15,2013-08-19 18:20:00,
2013-08-19 14:26:00,81.4,59.8,30.03,SSW,210,3.0,3.0,48,0.00,,,0.00,Wunderground v.1.15,2013-08-19 18:26:00,
2013-08-19 14:31:00,81.2,59.1,30.03,West,262,3.0,7.0,47,0.00,,,0.00,Wunderground v.1.15,2013-08-19 18:31:00,
2013-08-19 14:37:00,81.1,59.6,30.03,West,281,3.0,13.0,48,0.00,,,0.00,Wunderground v.1.15,2013-08-19 18:37:00,
2013-08-19 14:43:00,81.4,59.8,30.03,WNW,298,3.0,13.0,48,0.00,,,0.00,Wunderground v.1.15,2013-08-19 18:43:00,
2013-08-19 14:48:00,81.1,59.0,30.03,WSW,249,3.0,13.0,47,0.00,,,0.00,Wunderground v.1.15,2013-08-19 18:48:00,
2013-08-19 14:54:00,81.7,60.1,30.03,NW,326,3.0,13.0,48,0.00,,,0.00,Wunderground v.1.15,2013-08-19 18:54:00,
2013-08-19 15:00:00,82.0,59.8,30.02,NW,304,2.0,2.0,47,0.00,,,0.00,Wunderground v.1.15,2013-08-19 19:00:00,
2013-08-19 15:06:00,82.1,59.9,30.02,WSW,243,2.0,5.0,47,0.00,,,0.00,Wunderground v.1.15,2013-08-19 19:06:00,
2013-08-19 15:11:00,81.6,59.4,30.03,NNW,335,3.0,3.0,47,0.00,,,0.00,Wunderground v.1.15,2013-08-19 19:11:00,
2013-08-19 15:17:00,81.5,58.7,30.03,WSW,243,4.0,8.0,46,0.00,,,0.00,Wunderground v.1.15,2013-08-19 19:17:00,
2013-08-19 15:23:00,81.6,60.0,30.03,NW,326,3.0,4.0,48,0.00,,,0.00,Wunderground v.1.15,2013-08-19 19:23:00,
2013-08-19 15:29:00,82.0,59.2,30.02,NNW,330,2.0,5.0,46,0.00,,,0.00,Wunderground v.1.15,2013-08-19 19:29:00,
2013-08-19 15:35:00,82.0,59.8,30.03,West,266,3.0,14.0,47,0.00,,,0.00,Wunderground v.1.15,2013-08-19 19:35:00,
2013-08-19 15:40:00,82.1,59.3,30.03,NNW,335,3.0,3.0,46,0.00,,,0.00,Wunderground v.1.15,2013-08-19 19:40:00,
2013-08-19 15:46:00,82.1,60.5,30.02,West,262,3.0,14.0,48,0.00,,,0.00,Wunderground v.1.15,2013-08-19 19:46:00,
2013-08-19 15:51:00,82.7,59.2,30.02,ESE,122,2.0,14.0,45,0.00,,,0.00,Wunderground v.1.15,2013-08-19 19:51:00,
2013-08-19 15:57:00,82.5,59.6,30.02,North,350,2.0,14.0,46,0.00,,,0.00,Wunderground v.1.15,2013-08-19 19:57:00,
2013-08-19 16:03:00,82.1,59.3,30.02,East,84,3.0,5.0,46,0.00,,,0.00,Wunderground v.1.15,2013-08-19 20:03:00,
2013-08-19 16:09:00,81.6,59.4,30.03,NW,311,4.0,6.0,47,0.00,,,0.00,Wunderground v.1.15,2013-08-19 20:09:00,
2013-08-19 16:14:00,81.9,59.1,30.02,West,260,3.0,5.0,46,0.00,,,0.00,Wunderground v.1.15,2013-08-19 20:14:00,
2013-08-19 16:20:00,81.8,59.0,30.02,NNW,329,3.0,3.0,46,0.00,,,0.00,Wunderground v.1.15,2013-08-19 20:20:00,
2013-08-19 16:26:00,82.2,59.4,30.02,North,5,2.0,5.0,46,0.00,,,0.00,Wunderground v.1.15,2013-08-19 20:26:00,
2013-08-19 16:31:00,82.3,58.8,30.02,West,269,2.0,3.0,45,0.00,,,0.00,Wunderground v.1.15,2013-08-19 20:31:00,
2013-08-19 16:37:00,81.9,59.7,30.02,WSW,243,3.0,11.0,47,0.00,,,0.00,Wunderground v.1.15,2013-08-19 20:37:00,
2013-08-19 16:42:00,82.0,58.6,30.02,West,273,3.0,11.0,45,0.00,,,0.00,Wunderground v.1.15,2013-08-19 20:42:00,
2013-08-19 16:48:00,81.9,58.5,30.02,North,4,3.0,11.0,45,0.00,,,0.00,Wunderground v.1.15,2013-08-19 20:48:00,
2013-08-19 16:54:00,82.0,59.2,30.02,NW,325,2.0,11.0,46,0.00,,,0.00,Wunderground v.1.15,2013-08-19 20:54:00,
2013-08-19 17:00:00,82.0,59.2,30.02,WSW,256,2.0,2.0,46,0.00,,,0.00,Wunderground v.1.15,2013-08-19 21:00:00,
2013-08-19 17:05:00,82.2,59.4,30.02,North,1,3.0,3.0,46,0.00,,,0.00,Wunderground v.1.15,2013-08-19 21:05:00,
2013-08-19 17:11:00,82.5,59.6,30.02,SW,226,2.0,2.0,46,0.00,,,0.00,Wunderground v.1.15,2013-08-19 21:11:00,
2013-08-19 17:17:00,82.7,59.8,30.02,SW,224,1.0,6.0,46,0.00,,,0.00,Wunderground v.1.15,2013-08-19 21:17:00,
2013-08-19 17:22:00,82.7,59.2,30.02,ESE,120,1.0,3.0,45,0.00,,,0.00,Wunderground v.1.15,2013-08-19 21:22:00,
2013-08-19 17:28:00,82.7,60.4,30.02,North,352,2.0,3.0,47,0.00,,,0.00,Wunderground v.1.15,2013-08-19 21:28:00,
2013-08-19 17:34:00,82.5,60.8,30.02,SSW,212,2.0,13.0,48,0.00,,,0.00,Wunderground v.1.15,2013-08-19 21:34:00,
2013-08-19 17:40:00,82.3,59.4,30.02,NNE,15,2.0,13.0,46,0.00,,,0.00,Wunderground v.1.15,2013-08-19 21:40:00,
2013-08-19 17:46:00,82.5,59.6,30.02,West,274,2.0,13.0,46,0.00,,,0.00,Wunderground v.1.15,2013-08-19 21:46:00,
2013-08-19 17:51:00,82.4,60.1,30.02,NW,309,1.0,13.0,47,0.00,,,0.00,Wunderground v.1.15,2013-08-19 21:51:00,
2013-08-19 17:57:00,82.6,60.3,30.02,SW,231,0.0,13.0,47,0.00,,,0.00,Wunderground v.1.15,2013-08-19 21:57:00,
2013-08-19 18:03:00,82.6,60.9,30.02,North,355,1.0,1.0,48,0.00,,,0.00,Wunderground v.1.15,2013-08-19 22:03:00,
2013-08-19 18:09:00,82.7,61.6,30.02,NNW,348,1.0,2.0,49,0.00,,,0.00,Wunderground v.1.15,2013-08-19 22:09:00,
2013-08-19 18:15:00,82.1,61.6,30.02,NNW,338,0.0,1.0,50,0.00,,,0.00,Wunderground v.1.15,2013-08-19 22:15:00,
2013-08-19 18:20:00,81.8,60.2,30.02,West,274,0.0,2.0,48,0.00,,,0.00,Wunderground v.1.15,2013-08-19 22:20:00,
2013-08-19 18:26:00,81.2,61.4,30.02,NW,304,1.0,3.0,51,0.00,,,0.00,Wunderground v.1.15,2013-08-19 22:26:00,
2013-08-19 18:32:00,80.8,62.1,30.02,WNW,283,1.0,7.0,53,0.00,,,0.00,Wunderground v.1.15,2013-08-19 22:32:00,
2013-08-19 18:38:00,80.8,63.6,30.03,WSW,238,0.0,7.0,56,0.00,,,0.00,Wunderground v.1.15,2013-08-19 22:38:00,
2013-08-19 18:43:00,80.3,64.2,30.03,WNW,283,0.0,7.0,58,0.00,,,0.00,Wunderground v.1.15,2013-08-19 22:43:00,
2013-08-19 18:49:00,79.2,63.6,30.03,West,270,0.0,7.0,59,0.00,,,0.00,Wunderground v.1.15,2013-08-19 22:49:00,
2013-08-19 18:55:00,78.4,64.3,30.03,West,281,0.0,7.0,62,0.00,,,0.00,Wunderground v.1.15,2013-08-19 22:55:00,
2013-08-19 19:00:00,77.6,64.0,30.03,WSW,257,0.0,0.0,63,0.00,,,0.00,Wunderground v.1.15,2013-08-19 23:00:00,
2013-08-19 19:05:00,76.8,64.1,30.03,WSW,257,0.0,1.0,65,0.00,,,0.00,Wunderground v.1.15,2013-08-19 23:05:00,
2013-08-19 19:10:00,75.9,64.2,30.03,WNW,290,0.0,0.0,67,0.00,,,0.00,Wunderground v.1.15,2013-08-19 23:10:00,
2013-08-19 19:16:00,75.0,64.5,30.03,WNW,294,0.0,0.0,70,0.00,,,0.00,Wunderground v.1.15,2013-08-19 23:16:00,
2013-08-19 19:22:00,74.2,64.2,30.03,WNW,294,0.0,0.0,71,0.00,,,0.00,Wunderground v.1.15,2013-08-19 23:22:00,
2013-08-19 19:28:00,73.3,64.1,30.03,NW,309,0.0,0.0,73,0.00,,,0.00,Wunderground v.1.15,2013-08-19 23:28:00,
2013-08-19 19:33:00,72.8,64.4,30.03,NW,309,0.0,3.0,75,0.00,,,0.00,Wunderground v.1.15,2013-08-19 23:33:00,
2013-08-19 19:39:00,72.1,64.5,30.03,NW,309,0.0,3.0,77,0.00,,,0.00,Wunderground v.1.15,2013-08-19 23:39:00,
2013-08-19 19:45:00,71.6,64.4,30.03,NW,312,0.0,3.0,78,0.00,,,0.00,Wunderground v.1.15,2013-08-19 23:45:00,
2013-08-19 19:51:00,70.9,64.4,30.03,NW,312,0.0,3.0,80,0.00,,,0.00,Wunderground v.1.15,2013-08-19 23:51:00,
2013-08-19 19:56:00,70.4,64.3,30.04,NW,312,0.0,3.0,81,0.00,,,0.00,Wunderground v.1.15,2013-08-19 23:56:00,
2013-08-19 20:01:00,69.8,64.1,30.04,NW,312,0.0,0.0,82,0.00,,,0.00,Wunderground v.1.15,2013-08-20 00:01:00,
2013-08-19 20:07:00,69.2,63.8,30.04,NW,312,0.0,0.0,83,0.00,,,0.00,Wunderground v.1.15,2013-08-20 00:07:00,
2013-08-19 20:13:00,68.7,63.3,30.04,NW,312,0.0,0.0,83,0.00,,,0.00,Wunderground v.1.15,2013-08-20 00:13:00,
2013-08-19 20:19:00,68.3,63.3,30.04,NW,312,0.0,0.0,84,0.00,,,0.00,Wunderground v.1.15,2013-08-20 00:19:00,
2013-08-19 20:24:00,68.0,63.3,30.05,NW,312,0.0,0.0,85,0.00,,,0.00,Wunderground v.1.15,2013-08-20 00:24:00,
2013-08-19 20:30:00,67.7,63.4,30.05,NW,312,0.0,0.0,86,0.00,,,0.00,Wunderground v.1.15,2013-08-20 00:30:00,
2013-08-19 20:36:00,67.5,63.2,30.05,NW,312,0.0,1.0,86,0.00,,,0.00,Wunderground v.1.15,2013-08-20 00:36:00,
2013-08-19 20:41:00,67.2,62.9,30.05,NW,312,0.0,1.0,86,0.00,,,0.00,Wunderground v.1.15,2013-08-20 00:41:00,
2013-08-19 20:47:00,66.9,62.9,30.05,NW,312,0.0,1.0,87,0.00,,,0.00,Wunderground v.1.15,2013-08-20 00:47:00,
2013-08-19 20:53:00,66.5,62.8,30.05,NW,312,0.0,1.0,88,0.00,,,0.00,Wunderground v.1.15,2013-08-20 00:53:00,
2013-08-19 20:59:00,66.0,62.7,30.05,NW,312,0.0,1.0,89,0.00,,,0.00,Wunderground v.1.15,2013-08-20 00:59:00,
2013-08-19 21:05:00,65.7,62.4,30.06,NW,312,0.0,0.0,89,0.00,,,0.00,Wunderground v.1.15,2013-08-20 01:05:00,
2013-08-19 21:10:00,65.5,62.5,30.06,NW,312,0.0,0.0,90,0.00,,,0.00,Wunderground v.1.15,2013-08-20 01:10:00,
2013-08-19 21:16:00,65.2,62.2,30.06,NW,312,0.0,0.0,90,0.00,,,0.00,Wunderground v.1.15,2013-08-20 01:16:00,
2013-08-19 21:22:00,65.1,62.1,30.06,NW,312,0.0,0.0,90,0.00,,,0.00,Wunderground v.1.15,2013-08-20 01:22:00,
2013-08-19 21:27:00,64.9,61.9,30.06,NW,312,0.0,0.0,90,0.00,,,0.00,Wunderground v.1.15,2013-08-20 01:27:00,
2013-08-19 21:33:00,64.8,61.8,30.06,NNW,335,0.0,0.0,90,0.00,,,0.00,Wunderground v.1.15,2013-08-20 01:33:00,
2013-08-19 21:38:00,64.6,61.9,30.06,NNW,334,0.0,0.0,91,0.00,,,0.00,Wunderground v.1.15,2013-08-20 01:38:00,
2013-08-19 21:44:00,64.4,61.7,30.06,NNW,335,0.0,0.0,91,0.00,,,0.00,Wunderground v.1.15,2013-08-20 01:44:00,
2013-08-19 21:50:00,64.2,61.5,30.06,NNW,335,0.0,0.0,91,0.00,,,0.00,Wunderground v.1.15,2013-08-20 01:50:00,
2013-08-19 21:56:00,64.0,61.6,30.06,NNW,335,0.0,0.0,92,0.00,,,0.00,Wunderground v.1.15,2013-08-20 01:56:00,
2013-08-19 22:01:00,63.9,61.5,30.06,NNW,335,0.0,0.0,92,0.00,,,0.00,Wunderground v.1.15,2013-08-20 02:01:00,
2013-08-19 22:07:00,63.7,61.3,30.06,NNW,335,0.0,0.0,92,0.00,,,0.00,Wunderground v.1.15,2013-08-20 02:07:00,
2013-08-19 22:13:00,63.5,61.4,30.06,NNW,334,0.0,0.0,93,0.00,,,0.00,Wunderground v.1.15,2013-08-20 02:13:00,
2013-08-19 22:19:00,63.4,61.3,30.06,NNW,334,0.0,0.0,93,0.00,,,0.00,Wunderground v.1.15,2013-08-20 02:19:00,
2013-08-19 22:24:00,63.3,61.2,30.06,NNW,334,0.0,0.0,93,0.00,,,0.00,Wunderground v.1.15,2013-08-20 02:24:00,
2013-08-19 22:30:00,63.1,61.0,30.06,NNW,335,0.0,0.0,93,0.00,,,0.00,Wunderground v.1.15,2013-08-20 02:30:00,
2013-08-19 22:36:00,63.0,61.2,30.06,NNW,334,0.0,1.0,94,0.00,,,0.00,Wunderground v.1.15,2013-08-20 02:36:00,
2013-08-19 22:41:00,62.8,61.0,30.06,NNW,334,0.0,1.0,94,0.00,,,0.00,Wunderground v.1.15,2013-08-20 02:41:00,
2013-08-19 22:47:00,62.5,60.7,30.06,NNW,335,0.0,1.0,94,0.00,,,0.00,Wunderground v.1.15,2013-08-20 02:47:00,
2013-08-19 22:52:00,62.4,60.7,30.07,NNW,335,0.0,1.0,94,0.00,,,0.00,Wunderground v.1.15,2013-08-20 02:52:00,
2013-08-19 22:58:00,62.1,60.4,30.07,NNW,334,0.0,1.0,94,0.00,,,0.00,Wunderground v.1.15,2013-08-20 02:58:00,
2013-08-19 23:04:00,61.9,60.2,30.07,NNW,335,0.0,0.0,94,0.00,,,0.00,Wunderground v.1.15,2013-08-20 03:04:00,
2013-08-19 23:10:00,61.7,60.0,30.07,NNW,334,0.0,0.0,94,0.00,,,0.00,Wunderground v.1.15,2013-08-20 03:10:00,
2013-08-19 23:15:00,61.6,60.2,30.07,NNW,335,0.0,0.0,95,0.00,,,0.00,Wunderground v.1.15,2013-08-20 03:15:00,
2013-08-19 23:21:00,61.4,60.0,30.07,NNW,335,0.0,0.0,95,0.00,,,0.00,Wunderground v.1.15,2013-08-20 03:21:00,
2013-08-19 23:27:00,61.3,59.9,30.07,NNW,334,0.0,0.0,95,0.00,,,0.00,Wunderground v.1.15,2013-08-20 03:27:00,
2013-08-19 23:32:00,61.1,59.7,30.07,NNW,330,0.0,1.0,95,0.00,,,0.00,Wunderground v.1.15,2013-08-20 03:32:00,
2013-08-19 23:38:00,60.9,59.5,30.07,NNW,330,0.0,1.0,95,0.00,,,0.00,Wunderground v.1.15,2013-08-20 03:38:00,
2013-08-19 23:44:00,60.7,59.3,30.07,NNW,330,0.0,1.0,95,0.00,,,0.00,Wunderground v.1.15,2013-08-20 03:44:00,
2013-08-19 23:49:00,60.6,59.2,30.07,NNW,330,0.0,1.0,95,0.00,,,0.00,Wunderground v.1.15,2013-08-20 03:49:00,
2013-08-19 23:55:00,60.5,59.1,30.07,NNW,330,0.0,1.0,95,0.00,,,0.00,Wunderground v.1.15,2013-08-20 03:55:00,